Flag for U.S.A. Weather past 2 weeks in Providence, Rhode Island, U.S.A.

Now
76 °F

Clear.


Feels Like: 77 °F
Forecast: 72 / 86 °F
Wind: 9 mph from West

Location: Green State Airport

Current Time: Jul 30, 2015 at 3:03:37 AM

Latest Report: Jul 30, 2015 at 1:51 AM


Visibility: 10 mi

Pressure: 29.91 "Hg

Humidity: 80%

Dew point: 69 °F

Location of ProvidenceLocation

Historic Weather in Providence — Graph

°F

Providence temperature yesterday

Maximum temperature yesterday: 93 °F (at 2:51 PM)
Minimum temperature yesterday: 69 °F (at 4:51 AM)
Average temperature yesterday: 81 °F

Past Weeks' High & Low Weather Summary

 TemperatureHumidityPressure
High93 °F (Jul 29, 2:51 PM)97% (Jul 15, 1:59 AM)30.13 "Hg (Jul 15, 1:59 AM)
Low57 °F (Jul 17, 4:51 AM)34% (Jul 22, 4:51 PM)29.55 "Hg (Jul 21, 6:51 PM)
Average74 °F71%29.88 "Hg
* Reported Jul 15 1:59 AM — Jul 30 1:51 AM, Providence, Weather by CustomWeather, © 2015

Note: Actual official high and low records may vary slightly from our data, if they occured in-between our weather recording intervals... More about our weather records

Advertising

Providence weather history for previous 24 hours

 ConditionsComfort  
Time TempWeatherWind HumidityBarometerVisibility
1:51 AM
Thu, Jul 30
76 °FClear.9 mph80%29.91 "Hg10 mi
12:51 AM77 °FClear.9 mph74%29.91 "Hg10 mi
11:51 PM
Wed, Jul 29
78 °FPassing clouds.8 mph69%29.91 "Hg10 mi
10:51 PM79 °FPassing clouds.9 mph69%29.91 "Hg10 mi
9:51 PM77 °FPassing clouds.7 mph77%29.92 "Hg10 mi
8:51 PM81 °FScattered clouds.7 mph67%29.91 "Hg10 mi
7:51 PM84 °FScattered clouds.10 mph59%29.91 "Hg10 mi
6:51 PM86 °FScattered clouds.13 mph57%29.90 "Hg10 mi
5:51 PM88 °FScattered clouds.10 mph52%29.90 "Hg10 mi
4:51 PM90 °FScattered clouds.14 mph50%29.90 "Hg10 mi
3:51 PM93 °FScattered clouds.10 mph41%29.91 "Hg10 mi
2:51 PM93 °FBroken clouds.14 mph42%29.92 "Hg10 mi
1:51 PM92 °FPartly sunny.12 mph41%29.93 "Hg10 mi
12:51 PM88 °FPartly sunny.9 mph57%29.94 "Hg10 mi
11:51 AM88 °FPartly sunny.10 mph55%29.96 "Hg10 mi
10:51 AM87 °FPartly sunny.6 mph59%29.97 "Hg10 mi
9:51 AM86 °FPartly sunny.No wind57%29.97 "Hg10 mi
8:51 AM81 °FPartly sunny.No wind69%29.96 "Hg10 mi
7:51 AM75 °FPartly sunny.No wind82%29.97 "Hg10 mi
6:51 AM73 °FScattered clouds.No wind88%29.97 "Hg7 mi
5:51 AM70 °FFog.No wind90%29.96 "Hg6 mi
4:51 AM69 °FClear.No wind93%29.94 "Hg7 mi
3:51 AM71 °FClear.No wind90%29.94 "Hg8 mi
Weather by CustomWeather, © 2015

See weather overviewHow to use our weather pages